Погода в Даниловке

Хотите узнать прогноз погоды в Даниловке? Тогда Вам сюда: Погода в Даниловке

Поиск расширенной информации на нашем сайте:

Полезная информация:

Новости сайта



02.01.2020
Опубликован Долгосрочный прогноз погоды по городам России и ближнего зарубежья на январь 2020 года.
Карты: Прогноз на январь и февраль 2020 года, Сравнение прогнозируемой аномалии приземной температуры воздуха на январь 2020 года по разным моделям.




Погода в Даниловке - сегодня

Время (UTC), дата Ветер
(°,м/с) 
Видим.   Явления Облачность Т
(°С)
Тd
(°С)
f(%) Тe
(°С)
Pmin
(гПа)
dP
(гПа)
Po
(мм)
O2
(г/м3)
Тmin Tmax R s Состояние
почвы
12 24.02.21 320 (СЗ) 20000 м    9/9 600 м 
[Sc]
-17.4 -25.4 50 -21  1041.9  -0.4  771  334           
18 24.02.21 340 (С) 20000 м    10/0 верхняя 
[Cs]
-18.9 -23.8 65 -19  1040.4  -0.9  770  335           
21 24.02.21 180 (Ю) 20000 м    ясно 
-19.2 -23.6 68 -19  1039.9  -0.5  769  335           
00 25.02.21 тихо ()   20000 м    ясно 
-20.8 -24 75 -21  1038.2  -1.7  768  337           
03 25.02.21 180 (Ю) 20000 м    10/0 верхняя 
[Cs]
-15.8 -21 64 -18  1036.2  -1.7  767  329  -21.2      равномерный
мокрый или
старый снег
100% 
06 25.02.21 200 (Ю) 20000 м    9/9 600 м 
[Sc]
-13.3 -19 62 -17  1034  -2  765  326           
09 25.02.21 200 (Ю) 5-10{10}  2000 м  снег  10/10 300 м 
[Frnb|Ns]
-11.3 -14.5 77 -16  1030.3  -3.5  763  322           
12 25.02.21 210 (ЮЗ) 7-12{13}  2000 м  снег  10/10 300 м 
[Frnb|Ns]
-9.9 -12.7 80 -16  1025.7  -4.5  759  319           
15 25.02.21 210 (ЮЗ) 4-10{15}  2000 м  снег  10/10 300 м 
[Frnb|Ns]
-9.6 -11.4 87 -14  1021.9  -3.8  756  317    -9.6     
18 25.02.21 200 (Ю) 3{10}  4000 м  слаб. снег  10/10 300 м 
[Frnb|Ns]
-8.1 -9.5 90 -11  1020.4  -1.4  755  315           
21 25.02.21 220 (ЮЗ) 20000 м  {морось} [диам. гололёда 1 мм]  10/10 600 м 
[Sc]
-5.7 -6.5 94 -7  1018.5  -1.4  754  311           
00 26.02.21 240 (ЮЗ) 4000 м  слаб. снег{морось}  10/10 300 м 
[Frnb|Ns]
-2.6 -3.3 95 -4  1017.3  -1  753  307           
03 26.02.21 290 (З) 4000 м  дымка{снег} [диам. гололёда 1 мм]  10/10 600 м 
[Sc]
-0.7 -1.2 96 1017.1  -0.1  753  304  -9.6    11  равномерный
сухой снег
100% 
06 26.02.21 230 (ЮЗ) 2000 м  дымка{снег}  10/10 600 м 
[Sc]
+0.1 -0.4 96 -1  1017  -0.1  753  303           
09 26.02.21 230 (ЮЗ) 2000 м  дымка{морось}  10/10 600 м 
[Sc]
+2.3 +1.5 94 +1  1015.7  -1.2  752  300           
12 26.02.21 240 (ЮЗ) 2000 м  дымка{дождь, морось}  10/10 600 м 
[Sc]
+2.7 +1.9 94 +1  1014  -1.7  751  299           
15 26.02.21 230 (ЮЗ) 4{10}  2000 м  дымка  10/10 600 м 
[Sc]
+2.6 +2.1 96 +1  1012.4  -1.5  750  299    +2.9  0.0     
18 26.02.21 230 (ЮЗ) 5{11}  4000 м  дымка  9/9 600 м 
[Sc]
+3.6 +3.2 97 +1  1009.8  -2.6  748  297           
21 26.02.21 230 (ЮЗ) 5{10}  4000 м  дымка  10/10 600 м 
[Sc]
+4.1 +3.4 95 +2  1008.3  -1.4  747  296           
00 27.02.21 240 (ЮЗ) 20000 м    9/9 600 м 
[Sc]
+3.4 +2.4 93 +1  1007.7  -0.6  746  297           
03 27.02.21 230 (ЮЗ) 4000 м  дымка  10/6 600 м верхняя 
[Sc|Cs]
+2.2 +1.4 94 +1  1006.6  -1.2  745  298  +2.2      равномерный
мокрый или
старый снег
100% 
06 27.02.21 250 (З) 20000 м    9/9 600 м 
[Sc]
+2.6 +1.2 90 +1  1006.6  745  297  +1.8         
09 27.02.21 260 (З) 20000 м    9/9 600 м 
[Sc]
+3.8 +0.6 80 +1  1006.3  -0.2  745  296           
12 27.02.21 260 (З) 20000 м    10/8 600 м верхняя 
[Sc|Cs]
+3.6 +0.4 80 +2  1006  -0.3  745  296           
15 27.02.21 250 (З) 20000 м    9/9 600 м 
[Sc]
+2.3 -0.6 81 +1  1006.5  0.4  745  298    +4.3       
Время (UTC), дата Ветер
(°,м/с) 
Видим.   Явления Облачность Т
(°С)
Тd
(°С)
f(%) Тe
(°С)
Pmin
(гПа)
dP
(гПа)
Po
(мм)
O2
(г/м3)
Тmin Tmax R s Состояние
почвы

Для получения пояснительной информации подведите курсор к названию столбца.

ПОГОДА в Даниловке - архив

Всё, что Вы хотите узнать о погоде в Даниловке - удобно и подробно!

Выберите нужную дату (начиная с 1 января 2019* года) и нажмите кнопку "Найти".
Будут отображены архивные сводки погоды по пункту Даниловка, начиная с указанной даты.


Отображать данные в формате CSV (для использования в таблицах Excel)


Внимание! Наш архив погоды предназначен исключительно для личного некоммерческого использования в познавательных целях. Если Вам необходимы официальные справки о состоянии погоды (для производственных, юридических, коммерческих и т.п. целей), обращайтесь в органы Росгидромета.

*Примечание: данная дата относится к архиву по метеостанциям СССР (Россия, СНГ, Балтия).
Архив по метеостанциям Зарубежной Европы и Азии (кроме Китая) хранится 10 дней, по другим регионам земного шара (Китай, Африка, Америка, Австралия, Океания) - 1 день.

Даниловка - район местоположения метеостанции


Название, широта, долгота, высота метеостанции:
Даниловка 50.4°ш. 44.1°д. 102 м над ур. моря [Российская Федерация]

Дополнительная информация

В oтличие oт бoльшинства пoгoдных сайтoв мы публикуем пoдрoбную метеoинфoрмацию в детальнoм прoфессиoнальнoм фoрмате.

Характеристики температуры и влажнoсти вoздуха измеряются на высoте 2 м в тени вдали oт зданий и деревьев.
Скoрoсть ветра измеряется на высoте 10 м (на урoвне рoста челoвека скoрoсть ветра ниже в 1.5-2 раза). Если метеoстанция нахoдится в гoрoде или в лесу, тo скoрoсть ветра занижена на 2-4 м/с пo сравнению с oткрытым местoм. Скoрoсть ветра над акватoриями крупных рек и oзёр, а также на вершинах хoлмoв на 2-5 м/с выше, чем в oбычных услoвиях.
Атмoсфернoе давление в разных тoчках местнoсти мoжет значительнo oтличаться oт давления на метеoстанции, в зависимoсти oт услoвий рельефа (при пoдъёме на 10 м давление пoнижается примернo на 1 мм рт.ст.).